Regional Weather Roundup
Issued by NWS Cleveland, OH

Home | Current Version | Previous Version | Graphics & Text | Print | Product List | Glossary On
Versions: 1 2 3 4 5 6 7 8 9 10 11 12 13 14 15 16 17 18 19 20 21 22 23 24 25 26 27 28 29 30 31 32 33 34 35 36 37 38 39 40 41 42 43 44 45 46 47 48 49 50
000
ASUS41 KCLE 221702
RWRCLE
OHIO REGIONAL WEATHER ROUNDUP
NATIONAL WEATHER SERVICE CLEVELAND, OH
1200 PM EST SUN JAN 22 2017

NOTE: "FAIR" INDICATES FEW OR NO CLOUDS BELOW 12,000 FEET WITH NO
SIGNIFICANT WEATHER AND/OR OBSTRUCTIONS TO VISIBILITY.

OHZ001>008-015>018-024>027-034-035-043-044-221800-
   NORTHWEST OHIO

CITY           SKY/WX    TMP DP  RH WIND       PRES   REMARKS
DEFIANCE       CLOUDY    54  48  80 CALM      29.60F
FINDLAY        SUNNY     61  52  72 SE6       29.58F
TOLEDO EXPRESS SUNNY     53  51  93 VRB5      29.61F
TOLEDO EXEC    SUNNY     57  51  80 NE5       29.61F
LIMA           SUNNY     61  53  75 SE8       29.59F
$$

OHZ009>014-019>023-028>033-038-089-221800-
   NORTHEAST OHIO

CITY           SKY/WX    TMP DP  RH WIND       PRES   REMARKS
CLE-HOPKINS    PTSUNNY   62  49  62 CALM      29.63F
CLE-LAKEFRONT  PTSUNNY   59  51  75 CALM      29.61F
CUY CO. ARPT   PTSUNNY   59  52  77 S5        29.63F
LORAIN-ELYRIA  SUNNY     59  49  69 CALM      29.61F
ASHTABULA      MOSUNNY   57  52  83 SE7       29.64F
AKRON-CANTON   CLOUDY    60  50  69 SE3       29.62F
WOOSTER        PTSUNNY   56  51  84 CALM      29.62F
MANSFIELD      CLOUDY    59  49  69 E5        29.61F
YOUNGSTOWN     CLOUDY    55  51  86 E5        29.64F
$$

OHZ042-051>053-060>062-070>072-077>081-221800-
  SOUTHWEST OHIO

CITY           SKY/WX    TMP DP  RH WIND       PRES   REMARKS
CINC-COVINGTON CLOUDY    56  51  84 NE10      29.52F
CINC-LUNKEN    CLOUDY    57  53  86 NE7       29.53F
HAMILTON       CLOUDY    57  52  83 NE5       29.55F
DAYTON         CLOUDY    56  51  84 E9        29.57F
WRIGHT-PAT AFB PTSUNNY   58  56  92 E8        29.56F
DAYTON GENERAL CLOUDY    56  51  84 NE9       29.55F
WILMINGTON     MOSUNNY   57  52  83 NE9       29.55F
$$

OHZ036-037-039>041-045>050-054>059-063>069-073>076-082>088-221800-
  CENTRAL AND SOUTHEAST OHIO

CITY           SKY/WX    TMP DP  RH WIND       PRES   REMARKS
COLUMBUS       CLOUDY    63  51  65 E8        29.58F
OSU AIRPORT    CLOUDY    59  52  77 E5        29.58F
BOLTON FIELD   SUNNY     57  52  82 E8        29.59F
RICKENBACK AFB   N/A     58  52  79 NE10      29.57F
NEWARK         CLOUDY    57  50  77 NE5       29.59F
MARION         MOSUNNY   60  50  69 SE7       29.60F
LANCASTER      CLOUDY    62  51  67 NE8       29.58F
ZANESVILLE     CLOUDY    60  48  64 NE6       29.59F
NEW PHILLY     NOT AVBL
$$



USA.gov is the U.S. government's official web portal to all federal, state and local government web resources and services.